Вернуться в каталог

STARLINK-31430

АктивенСвязьVLEO
NORAD 59375·PAYLOAD·🇺🇸 United States

Запущен Apr 2, 2024 с Vandenberg Space Force Base

Loading…

Ближайшие Пролёты (ближайшие 24 часа)

TLE

СвежийSource: CelesTrak SupGP

Эпоха: Sep 14, 2026, 22:46 UTC

1 59375C 24062B   26257.94909722  .00032839  00000+0  97036-3 0  2576
2 59375  53.1569  95.7720 0001305  84.4282 118.8500 15.34370467    11

Отслеживайте STARLINK-31430 в реальном времени с AllMySat

Download on the App Store